Notices

What's New in latest Release from April 7th, 2021:

- Updated Glossary, including Speed of Maximum Gust, and Total Hourly Precipitation

- Updated national and regional climate services offices contacts and prices information

- Addition of station inventory lists for 1981-2010, 1971-2000, and 1961-1990 Normals.

If you haven't already, please take our survey and provide feedback about our website: https://eccc.sondage-survey.ca/f/LanguageSelection.aspx?s=442ca660-fcf1-47c0-95a9-59707d6fd709

Hourly Data Report for February 27, 2012

HALIFAX STANFIELD INT'L A
NOVA SCOTIA

44°52'48.060" N
63°30'00.050" W
145.40 m
8202250
71395
YHZ

Download Data

Hourly Data (February 2012)
Hourly Data Report for February 27, 2012
TIME
LST
Temp Definition
°C
Dew Point Definition
°C
Rel Hum Definition
%
Precip. Amount Definition
mm

Wind Dir Definition
10's deg

Wind Spd Definition
km/h
Visibility Definition
km
Stn Press Definition
kPa
Hmdx Definition


Wind Chill Definition


Weather Definition


00:00 -5.3 -11.3 63   32 26 24.1 100.31   -13 Mainly Clear
01:00 -6.0 -12.3 61   32 24 24.1 100.39   -13 Mainly Clear
02:00 -6.7 -13.4 59   32 24 24.1 100.50   -14 Mainly Clear
03:00 -7.1 -14.2 57   32 24 24.1 100.56   -15 Mainly Clear
04:00 -7.9 -13.5 64   31 11 24.1 100.62   -13 Clear
05:00 -8.5 -14.1 64   29 13 24.1 100.72   -14 Clear
06:00 -9.0 -14.0 67   30 15 24.1 100.81   -16 Mainly Clear
07:00 -9.6 -14.6 67   29 13 24.1 100.89   -16 Mainly Clear
08:00 -8.5 -14.3 63   29 13 24.1 100.96   -14 Mainly Clear
09:00 -8.2 -13.8 64   35 9 24.1 100.98   -13 Mainly Clear
10:00 -7.0 -13.2 61   32 9 24.1 100.95   -11 Mostly Cloudy
11:00 -6.0 -14.1 53   31 22 24.1 100.97   -13 Mainly Clear
12:00 -4.9 -13.9 49   30 20 24.1 100.94   -11 Mostly Cloudy
13:00 -4.3 -14.2 46   28 19 24.1 100.90   -10 Mostly Cloudy
14:00 -3.7 -14.3 44   28 17 24.1 100.83   -9 Mostly Cloudy
15:00 -2.7 -13.7 42   30 9 24.1 100.78   -6 Cloudy
16:00 -2.5 -15.4 36   28 15 24.1 100.79   -7 Cloudy
17:00 -3.6 -12.6 50   33 11 24.1 100.76   -8 Cloudy
18:00 -3.9 -13.8 46   34 11 24.1 100.80   -8 Cloudy
19:00 -5.0 -12.3 57   36 7 24.1 100.82   -8 Cloudy
20:00 -5.4 -12.0 60   6 9 24.1 100.72   -9 Cloudy
21:00 -5.3 -12.2 58   13 9 16.1 100.70   -9 Snow Showers
22:00 -6.4 -8.5 85   12 9 12.9 100.66   -11 Snow
23:00 -6.3 -7.7 90   11 13 4.8 100.52   -12 Snow

Notes on Data Quality.

Legend

  • E = Estimated
  • M = Missing
  • NA = Not Available*
  • [empty] = Indicates an unobserved value
Date modified: